Location: Brno
(49.2000°N, 16.6330°E)
Time: 18:10:53
(UTC+02:00)

Transit 4A - Pass Details

Date: 03 August 2021
Orbit: 871 x 974 km, 66.8° (Epoch: 16 September)

Event Time Altitude Azimuth Distance (km) Brightness Sun altitude
Rises 08:01:46 0° 325° (NW) 3,472 10.6 23.2°
Reaches altitude 10° 08:04:20 10° 330° (NNW) 2,536 10.0 23.6°
Maximum altitude 08:10:03 52° 47° (NE) 1,090 9.2 24.5°
Drops below altitude 10° 08:15:51 10° 123° (ESE) 2,572 11.3 25.5°
Sets 08:18:26 0° 129° (SE) 3,524 11.7 25.9°
